This is the latest recevied weather packets stored in our database for station/object KB0BS-13. If no packets are shown the sender has not sent any weather packets the latest 10 day(s).
| Time | Temp. | Humidity | Pressure | Rain* | Wind** | Luminosity | Snow |
|---|---|---|---|---|---|---|---|
| 1777816714 | 1.67° C | 97% | 1008.5 hPa | 0 mm | - | 40 W/m² | - |
| 1777815202 | 1.11° C | 98% | 1008.3 hPa | 0 mm | - | 28 W/m² | - |
| 1777814898 | 1.11° C | 97% | 1008.3 hPa | 0 mm | - | 21 W/m² | - |
| 1777814595 | 1.11° C | 97% | 1008.4 hPa | 1.78 mm | - | 22 W/m² | - |
| 1777814292 | 1.11° C | 97% | 1008.3 hPa | 1.78 mm | - | 30 W/m² | - |
| 1777813686 | 1.11° C | 95% | 1008.6 hPa | 1.27 mm | - | 29 W/m² | - |
| 1777811870 | 1.11° C | 95% | 1009.3 hPa | 0 mm | - | 12 W/m² | - |
| 1777811569 | 1.11° C | 95% | 1009.3 hPa | 0 mm | - | 19 W/m² | - |
| 1777811264 | 1.11° C | 94% | 1009.4 hPa | 0 mm | - | 25 W/m² | - |
| 1777810658 | 1.11° C | 93% | 1009.3 hPa | 0 mm | - | 37 W/m² | - |
| 1777809749 | 0.56° C | 95% | 1009 hPa | 0 mm | - | 40 W/m² | - |
| 1777809446 | 0.56° C | 95% | 1009 hPa | 0 mm | - | 40 W/m² | - |
| 1777809144 | 0.56° C | 94% | 1009.2 hPa | 0 mm | - | 47 W/m² | - |
| 1777808235 | 0° C | 95% | 1009.2 hPa | 0 mm | - | 17 W/m² | - |
| 1777807934 | 0° C | 95% | 1009.5 hPa | 0 mm | - | 42 W/m² | - |
| 1777807631 | 0° C | 95% | 1009.3 hPa | 0 mm | - | 44 W/m² | - |
| 1777807328 | -0.56° C | 95% | 1009.4 hPa | 0 mm | - | 24 W/m² | - |
| 1777807024 | -0.56° C | 95% | 1009.1 hPa | 0 mm | - | 20 W/m² | - |
| 1777806721 | -0.56° C | 95% | 1009.2 hPa | 0 mm | - | 30 W/m² | - |
| 1777806114 | -1.11° C | 96% | 1009.1 hPa | 0 mm | - | 24 W/m² | - |
| 1777805810 | -1.11° C | 96% | 1009.2 hPa | 0 mm | - | 20 W/m² | - |
| 1777804298 | -1.11° C | 96% | 1009.5 hPa | 0 mm | - | 5 W/m² | - |
| 1777803995 | -1.11° C | 96% | 1009.5 hPa | 0 mm | - | 4 W/m² | - |
| 1777803691 | -1.11° C | 95% | 1009.5 hPa | 0 mm | - | 2 W/m² | - |
| 1777803387 | -1.11° C | 96% | 1009.4 hPa | 0 mm | - | 1 W/m² | - |
* Rain latest hour (hover to see other rain measurements)
** Current wind speed in m/s (hover to see current wind gust speed)